Regional Weather Roundup
Issued by NWS Sterling, VA

Home | Current Version | Previous Version | Graphics & Text | Print | Product List | Glossary On
Versions: 1 2 3 4 5 6 7 8 9 10 11 12 13 14 15 16 17 18 19 20 21 22 23 24 25 26 27 28 29 30 31 32 33 34 35 36 37 38 39 40 41 42 43 44 45 46 47 48 49 50
000
ASUS41 KLWX 012210
RWRLWX

REGIONAL WEATHER ROUNDUP
NATIONAL WEATHER SERVICE BALTIMORE MD/WASHINGTON DC
500 PM EST SUN FEB 01 2015

Note: "FAIR" indicates few or no clouds below 12,000 feet
with no significant weather and/or obstructions to visibility.
 TC=TEMPERATURE CELSIUS

 * =Non NWS site. Station does not report precipitation (e.g. rain,
    snow, etc.), thunder, or fog.

DCZ001-MDZ009-015-VAZ040>042-051-053>054-012300-
WASHINGTON METRO

CITY           SKY/WX    TMP DP  RH WIND       PRES   REMARKS
WASHINGTON NAT CLOUDY    42  19  39 SE3       30.08F
DULLES         CLOUDY    39  16  39 E5        30.05F
ANDREWS AFB    CLOUDY    40  17  40 E8        30.06F
FT BELVOIR     CLOUDY    41  16  36 CALM      30.09S
QUANTICO       CLOUDY    40  24  53 S10       30.09F
COLLEGE PARK*  CLOUDY    41  18  38 E6        30.07F
LEESBURG*      CLOUDY    41  21  45 SE3       30.06S
GAITHERSBURG*  CLOUDY    37  18  44 SE5       30.09F

$$

MDZ006>007-011-014-012300-
BALTIMORE METRO

CITY           SKY/WX    TMP DP  RH WIND       PRES   REMARKS
BWI AIRPORT    CLOUDY    37  20  50 E9        30.07F
MD SCIENCE CTR   N/A     37  24  59 MISG      30.09F
MARTIN STATE   CLOUDY    36  27  69 SE5       30.14F
ANNAPOLIS      CLOUDY    37  21  52 SE10      30.08F
FORT MEADE*    MOCLDY    37  21  52 SE6       30.11F

$$

MDZ012-015-019>023-012300-
MARYLAND EASTERN SHORE

CITY           SKY/WX    TMP DP  RH WIND       PRES   REMARKS
OCEAN CITY     MOCLDY    37  27  67 S5        30.16F
SALISBURY      CLOUDY    41  22  46 SE8       30.14F
BAY BRIDGE AP*   N/A     37  16  41 SE8       30.10F
CAMBRIDGE*     CLOUDY    37  23  56 S7        30.12F
EASTON*        CLOUDY    41  16  36 S9        30.15F

$$

MDZ017>025-012300-
SOUTHERN MARYLAND

CITY           SKY/WX    TMP DP  RH WIND       PRES   REMARKS
PATUXENT RIVER CLOUDY    38  22  52 SE13      30.10F
ST INIGOES     NOT AVBL
LEONARDTOWN*   MOCLDY    37  21  52 SE8       30.11F

$$

MDZ003>005-012300-
NORTH CENTRAL MARYLAND

CITY           SKY/WX    TMP DP  RH WIND       PRES   REMARKS
FREDERICK*     CLOUDY    39  18  41 SW6       30.11F
HAGERSTOWN APT CLOUDY    35  25  66 CALM      30.04R
WESTMINSTER*   CLOUDY    36  16  44 SE8       30.03F

$$

MDZ501>502-012300-
WESTERN MARYLAND

CITY           SKY/WX    TMP DP  RH WIND       PRES   REMARKS
OAKLAND*       CLOUDY    32 N/A N/A SE12      29.85F WCI  23
CUMBERLAND*    CLOUDY    36  30  80 CALM      30.01F

$$

VAZ025>031-012300-
SHENANDOAH VALLEY

CITY           SKY/WX    TMP DP  RH WIND       PRES   REMARKS
WINCHESTER*    CLOUDY    39  14  35 SE10      29.99F
FRONT ROYAL*   CLOUDY    41  16  36 S5        29.98F
LURAY*         CLOUDY    43  19  39 SW16      30.00R
NEW MARKET*    CLOUDY    42  24  49 SW5       29.99R
STAUNTON*      CLOUDY    42  11  28 S12G17    29.99F
WAYNESBORO*    MOCLDY    41  13  31 SE8       29.99S

$$

WVZ021-048>050-054>055-012300-
EASTERN WEST VIRGINIA PANHANDLE

CITY           SKY/WX    TMP DP  RH WIND       PRES   REMARKS
MARTINSBURG    CLOUDY    39  21  48 E3        30.02F
PETERSBURG*    CLOUDY    39  29  68 CALM      29.95F

$$

VAZ036>039-050-012300-
CENTRAL FOOTHILLS

CITY           SKY/WX    TMP DP  RH WIND       PRES   REMARKS
CHARLOTTESVILL CLOUDY    43  13  29 CALM      30.04F
CULPEPER*      CLOUDY    43  19  39 CALM      30.06S
ORANGE*        CLOUDY    43  14  31 S3        30.06F
GORDONSVILLE*  FAIR      43  13  29 CALM      30.05F
WARRENTON*     MOCLDY    44  23  42 S3        30.05S

$$

VAZ055>057-012300-
NORTH AND CENTRAL PIEDMONT

CITY           SKY/WX    TMP DP  RH WIND       PRES   REMARKS
FREDERICKSBRG* CLOUDY    45  17  33 SE7       30.07S
STAFFORD*      CLOUDY    44  10  25 CALM      30.10F

$$

NCZ024-NYZ072-PAZ021-071-VAZ022-071-012300-
OTHER REGIONAL OBSERVATIONS

CITY           SKY/WX    TMP DP  RH WIND       PRES   REMARKS
NEW YORK CITY  MOCLDY    35  19  52 VRB3      30.15F
PHILADELPHIA   CLOUDY    38  22  52 S7        30.13F
PITTSBURGH     CLOUDY    33  32  96 E6        29.82F FOG
ROANOKE        CLOUDY    48  21  34 SE10      29.97F
RICHMOND       CLOUDY    46  21  37 SE8       30.09S
RALEIGH        CLOUDY    53  25  33 S8        30.08F

$$

ANZ530>537-012300-
MARINE OBSERVATIONS

STATION/POSITION TIME  TEMP    WIND        PRES
                       AIR SEA DIR/SP/G
                 (UTC) (F)     (DEG/KT/KT) (MB)
THOMAS PT LIGHT  2200   37 35  160/ 17/ 18 1019.7F
BALT KEY BRIDGE  2200   38     140/ 11/ 12 1019.6F
COVE POINT       2200   37     180/ 17/ 19 1019.6F
LEWISETTA        2200   39 35  160/  9/ 11 1019.3R
SOLOMONS ISLAND  2200      37                N/A
PINEY POINT      2200          150/ 15/ 16   N/A

$$




USA.gov is the U.S. government's official web portal to all federal, state and local government web resources and services.